TimeCST,TemperatureF,Dew PointF,Humidity,Sea Level PressureIn,VisibilityMPH,Wind Direction,Wind SpeedMPH,Gust SpeedMPH,PrecipitationIn,Events,Conditions,WindDirDegrees,DateUTC
12:15 AM,20.1,17.4,89,30.40,7.0,ENE,5.8,-,N/A,,Clear,70,2013-03-08 06:15:00
12:35 AM,17.6,14.5,88,30.39,7.0,East,9.2,-,N/A,,Clear,90,2013-03-08 06:35:00
12:55 AM,19.8,16.7,88,30.40,10.0,ESE,3.5,-,N/A,,Clear,110,2013-03-08 06:55:00
1:15 AM,17.1,13.8,87,30.42,7.0,Calm,Calm,-,N/A,,Clear,0,2013-03-08 07:15:00
1:35 AM,19.2,16.3,89,30.43,10.0,Calm,Calm,-,N/A,,Clear,0,2013-03-08 07:35:00
1:55 AM,20.3,17.4,89,30.43,7.0,Calm,Calm,-,N/A,,Clear,0,2013-03-08 07:55:00
2:15 AM,17.4,14.2,87,30.42,7.0,Calm,Calm,-,N/A,,Clear,0,2013-03-08 08:15:00
2:35 AM,17.4,14.2,87,30.42,7.0,East,4.6,-,N/A,,Clear,80,2013-03-08 08:35:00
2:55 AM,14.5,11.5,88,30.41,5.0,East,5.8,-,N/A,,Clear,80,2013-03-08 08:55:00
3:15 AM,14.9,12.0,88,30.41,4.0,East,4.6,-,N/A,,Clear,80,2013-03-08 09:15:00
3:35 AM,15.8,12.2,86,30.41,3.0,East,4.6,-,N/A,,Clear,80,2013-03-08 09:35:00
3:55 AM,15.6,12.9,89,30.41,3.0,Calm,Calm,-,N/A,,Clear,0,2013-03-08 09:55:00
4:15 AM,14.5,11.8,89,30.42,1.8,Calm,Calm,-,N/A,,Mist,0,2013-03-08 10:15:00
4:35 AM,17.6,15.1,90,30.43,2.0,Calm,Calm,-,N/A,,Clear,0,2013-03-08 10:35:00
4:55 AM,18.5,16.0,90,30.42,1.8,Calm,Calm,-,N/A,,Mist,0,2013-03-08 10:55:00
5:15 AM,16.3,13.6,89,30.42,1.2,Calm,Calm,-,N/A,,Mist,0,2013-03-08 11:15:00
5:35 AM,16.7,14.0,89,30.43,0.5,Calm,Calm,-,N/A,Fog,Light Freezing Fog,0,2013-03-08 11:35:00
5:55 AM,15.1,12.4,89,30.43,0.2,East,5.8,-,N/A,Fog,Light Freezing Fog,90,2013-03-08 11:55:00
6:15 AM,14.0,10.4,86,30.43,0.2,East,6.9,-,N/A,Fog,Light Freezing Fog,100,2013-03-08 12:15:00
6:35 AM,14.9,12.2,89,30.44,0.2,ESE,5.8,-,N/A,Fog,Light Freezing Fog,120,2013-03-08 12:35:00
6:55 AM,15.4,12.7,89,30.44,0.2,ESE,4.6,-,N/A,Fog,Light Freezing Fog,120,2013-03-08 12:55:00
7:15 AM,16.0,13.3,89,30.44,0.2,ESE,4.6,-,N/A,Fog,Light Freezing Fog,110,2013-03-08 13:15:00
7:35 AM,16.3,13.5,88,30.44,0.2,ESE,5.8,-,N/A,Fog,Light Freezing Fog,110,2013-03-08 13:35:00
7:55 AM,19.2,16.5,89,30.44,0.8,ESE,6.9,-,N/A,,Mostly Cloudy,120,2013-03-08 13:55:00
8:15 AM,23.5,21.0,90,30.44,4.0,SE,9.2,-,N/A,,Clear,130,2013-03-08 14:15:00
8:35 AM,24.8,22.1,89,30.44,5.0,SE,10.4,-,N/A,,Clear,130,2013-03-08 14:35:00
8:55 AM,24.8,23.0,93,30.45,5.0,SE,9.2,-,N/A,,Clear,140,2013-03-08 14:55:00
9:15 AM,25.5,23.0,90,30.45,7.0,SE,9.2,-,N/A,,Clear,130,2013-03-08 15:15:00
9:35 AM,25.9,23.7,92,30.44,7.0,SE,10.4,-,N/A,,Clear,130,2013-03-08 15:35:00
9:55 AM,27.1,24.4,90,30.44,10.0,ESE,10.4,-,N/A,,Clear,120,2013-03-08 15:55:00
10:15 AM,28.6,23.5,81,30.44,7.0,SE,11.5,-,N/A,,Clear,130,2013-03-08 16:15:00
10:35 AM,30.2,24.3,79,30.44,10.0,SE,11.5,-,N/A,,Clear,140,2013-03-08 16:35:00
10:55 AM,30.7,23.9,76,30.44,10.0,SE,11.5,-,N/A,,Clear,140,2013-03-08 16:55:00
11:15 AM,31.6,24.8,76,30.44,10.0,SE,11.5,-,N/A,,Clear,140,2013-03-08 17:15:00
11:35 AM,32.0,25.0,75,30.44,10.0,SE,11.5,-,N/A,,Clear,140,2013-03-08 17:35:00
11:55 AM,32.5,24.8,73,30.44,10.0,SSE,12.7,-,N/A,,Clear,150,2013-03-08 17:55:00
12:15 PM,32.9,24.6,72,30.43,10.0,SE,13.8,-,N/A,,Clear,140,2013-03-08 18:15:00
12:35 PM,33.1,24.6,71,30.42,10.0,SE,12.7,-,N/A,,Clear,140,2013-03-08 18:35:00
12:55 PM,33.1,24.6,71,30.40,10.0,SE,13.8,-,N/A,,Clear,140,2013-03-08 18:55:00
1:15 PM,33.8,25.3,71,30.39,10.0,SSE,12.7,-,N/A,,Clear,150,2013-03-08 19:15:00
1:35 PM,33.8,24.8,70,30.39,10.0,SE,11.5,-,N/A,,Clear,140,2013-03-08 19:35:00
1:55 PM,34.0,25.2,70,30.39,10.0,SSE,9.2,-,N/A,,Clear,150,2013-03-08 19:55:00
2:15 PM,33.8,25.3,71,30.39,10.0,SSE,11.5,-,N/A,,Clear,160,2013-03-08 20:15:00
2:35 PM,34.0,25.2,70,30.38,10.0,South,10.4,-,N/A,,Clear,170,2013-03-08 20:35:00
2:55 PM,34.0,25.2,70,30.37,10.0,SSE,10.4,-,N/A,,Clear,160,2013-03-08 20:55:00
3:15 PM,34.0,25.2,70,30.37,10.0,South,10.4,-,N/A,,Clear,170,2013-03-08 21:15:00
3:35 PM,33.8,25.3,71,30.36,10.0,SSE,9.2,-,N/A,,Clear,160,2013-03-08 21:35:00
3:55 PM,33.8,25.7,72,30.35,10.0,SSE,5.8,-,N/A,,Clear,150,2013-03-08 21:55:00
4:15 PM,33.8,25.5,72,30.35,10.0,SE,6.9,-,N/A,,Clear,140,2013-03-08 22:15:00
4:35 PM,33.8,25.7,72,30.35,10.0,SE,6.9,-,N/A,,Clear,140,2013-03-08 22:35:00
4:55 PM,33.3,26.2,75,30.36,10.0,SE,6.9,-,N/A,,Clear,140,2013-03-08 22:55:00
5:15 PM,33.1,26.2,76,30.36,10.0,SSE,6.9,-,N/A,,Clear,150,2013-03-08 23:15:00
5:35 PM,32.5,26.1,77,30.36,10.0,SE,6.9,-,N/A,,Clear,140,2013-03-08 23:35:00
5:55 PM,31.8,25.5,78,30.36,10.0,SE,6.9,-,N/A,,Clear,140,2013-03-08 23:55:00
6:15 PM,31.8,25.3,77,30.36,10.0,SE,6.9,-,N/A,,Clear,130,2013-03-09 00:15:00
6:35 PM,31.8,25.0,76,30.36,10.0,SE,9.2,-,N/A,,Clear,130,2013-03-09 00:35:00
6:55 PM,31.6,24.8,76,30.35,10.0,SE,9.2,-,N/A,,Clear,130,2013-03-09 00:55:00
7:15 PM,31.1,24.8,77,30.35,10.0,SE,8.1,-,N/A,,Clear,130,2013-03-09 01:15:00
7:35 PM,30.6,24.4,78,30.35,10.0,SE,6.9,-,N/A,,Clear,130,2013-03-09 01:35:00
7:55 PM,30.2,24.4,79,30.36,10.0,SE,8.1,-,N/A,,Clear,130,2013-03-09 01:55:00
8:15 PM,30.2,24.6,80,30.35,10.0,ESE,9.2,-,N/A,,Clear,120,2013-03-09 02:15:00
8:35 PM,30.2,24.3,79,30.35,10.0,SE,10.4,-,N/A,,Clear,130,2013-03-09 02:35:00
8:55 PM,30.0,23.5,77,30.34,10.0,SE,10.4,-,N/A,,Clear,130,2013-03-09 02:55:00
9:15 PM,29.7,23.0,76,30.33,10.0,ESE,12.7,-,N/A,,Clear,120,2013-03-09 03:15:00
9:35 PM,29.1,22.8,77,30.32,10.0,ESE,11.5,-,N/A,,Clear,110,2013-03-09 03:35:00
9:55 PM,29.1,23.0,78,30.31,10.0,ESE,15.0,-,N/A,,Clear,110,2013-03-09 03:55:00
10:15 PM,29.3,23.0,77,30.30,10.0,ESE,13.8,-,N/A,,Clear,110,2013-03-09 04:15:00
10:35 PM,29.5,23.2,77,30.30,10.0,ESE,12.7,-,N/A,,Clear,110,2013-03-09 04:35:00
10:55 PM,30.2,23.7,77,30.29,10.0,ESE,12.7,-,N/A,,Clear,120,2013-03-09 04:55:00
11:15 PM,29.8,23.2,76,30.28,10.0,ESE,11.5,-,N/A,,Clear,120,2013-03-09 05:15:00
11:35 PM,29.5,22.8,76,30.28,10.0,SE,11.5,-,N/A,,Clear,130,2013-03-09 05:35:00
11:55 PM,29.3,22.8,77,30.28,10.0,SSE,10.4,-,N/A,,Clear,150,2013-03-09 05:55:00